Wind_Speed
4 4 5 5 4 5 5 4 4 4 3 3 4 5 6 7 8 8 8 7 7 5 4 1 1 3 4 3 3 3 3 3 1 0 3 5 6 2 3 5 5 5 3 9 14 16 15
4 6 7 7 7 6 6 5 5 4 5 4 5 5 6 7 7 7 7 6 6 5 3 2 3 4 3 1 2 3 2 3 2 0 3 2 4 5 6 5 5 6 12 11 6 7 8
6 6 7 9 9 8 7 6 6 5 5 5 5 6 7 7 7 7 6 5 5 3 3 3 5 5 3 3 2 1 1 3 3 2 3 4 6 4 4 4 5 17 5 4 6 8 4
10 8 8 8 9 9 9 7 6 7 6 5 5 6 7 7 7 7 6 5 4 3 2 4 5 2 3 3 2 3 1 2 3 4 4 6 5 6 4 10 4 2 4 2 4 12 8
10 11 10 9 8 8 9 9 7 7 7 7 6 6 7 7 8 7 6 4 2 2 3 3 5 2 2 2 1 2 1 2 5 6 6 7 5 4 5 4 4 1 3 5 3 15 7
10 11 11 10 9 8 9 9 9 8 7 7 7 6 7 7 7 7 5 2 2 2 3 6 5 2 2 2 2 1 1 3 4 7 6 3 3 3 3 4 4 4 3 3 5 7 5
13 12 13 12 11 10 8 9 9 9 9 8 8 8 7 7 7 6 5 1 1 1 2 1 0 2 1 1 3 4 3 5 5 2 2 1 5 3 5 5 4 2 1 2 1 5 5
14 14 13 13 13 11 11 9 10 9 9 9 9 8 8 8 7 5 5 3 1 2 1 2 3 1 1 2 1 3 2 1 2 2 3 5 2 2 3 3 3 2 1 4 2 1 2
13 14 14 14 14 14 11 11 10 11 10 9 9 8 7 7 6 3 3 1 1 2 1 1 3 2 1 2 1 1 2 3 1 4 4 4 3 2 1 2 2 1 2 2 1 2 4
15 14 13 15 14 15 15 12 12 11 11 11 10 8 7 5 4 3 1 1 2 3 3 3 2 1 3 4 1 1 2 2 0 3 2 2 1 1 1 1 2 1 2 1 2 3 3
18 17 15 14 17 15 15 15 13 12 12 12 11 9 8 5 4 4 3 3 3 3 3 3 4 4 3 3 3 1 1 2 3 3 4 3 2 1 1 1 2 3 1 1 1 1 2
22 20 19 17 15 17 15 14 15 13 12 11 10 10 8 7 7 5 3 3 5 5 6 4 4 4 3 3 2 1 1 2 2 2 2 2 2 2 3 2 2 3 0 3 3 3 1
17 21 23 23 19 17 17 14 13 13 12 11 10 10 9 8 4 4 3 3 4 4 1 4 5 4 3 4 3 4 3 1 4 4 3 2 2 1 2 3 3 2 4 3 4 2 6
18 20 21 25 25 20 19 17 14 12 12 11 10 10 10 9 7 5 4 3 3 4 5 2 3 3 4 5 2 4 3 2 1 2 2 5 5 5 1 1 5 4 5 4 5 3 4
22 19 15 20 23 27 23 20 17 15 13 11 10 10 11 10 8 7 5 2 7 4 4 7 3 3 3 2 2 3 5 4 2 2 7 5 3 2 4 2 1 3 3 2 0 2 1
15 17 17 10 13 22 25 25 21 18 15 13 10 8 13 9 8 8 2 5 4 1 2 4 6 4 6 4 4 5 5 1 4 3 3 1 1 1 1 2 1 1 1 2 2 3 5
23 22 16 22 25 22 19 23 24 22 18 14 9 5 7 10 11 7 4 7 2 1 2 3 3 4 4 6 7 4 2 3 2 2 3 1 2 1 2 4 5 1 2 1 3 4 4
23 21 24 19 17 14 11 12 19 19 19 17 4 3 8 14 6 5 4 4 5 4 3 1 1 1 2 5 4 3 5 1 3 6 5 2 4 4 8 1 0 1 5 6 4 4 4
22 19 19 18 16 19 10 9 12 16 15 14 7 5 7 18 4 3 2 2 4 4 4 5 4 2 1 4 3 4 4 2 2 2 5 4 2 1 3 1 2 4 4 3 4 3 6
22 21 20 21 22 19 8 16 24 9 14 12 5 1 5 12 8 4 5 5 6 4 3 3 4 3 3 3 1 5 3 2 3 1 2 1 3 6 7 3 5 4 5 6 6 4 5
20 21 21 22 21 20 17 18 18 11 13 9 9 5 5 3 7 6 6 7 6 6 3 7 1 5 6 5 4 5 3 2 0 3 2 3 5 3 4 5 3 6 6 8 10 8 9
18 18 19 21 24 21 19 22 18 16 11 18 8 5 5 7 10 11 6 6 10 5 8 6 5 8 7 6 7 8 8 5 5 3 5 2 3 0 3 6 1 4 9 11 14 5 7
18 17 15 16 19 21 21 20 24 23 19 13 12 11 4 3 5 3 3 6 8 11 5 4 10 5 7 5 8 9 8 7 11 8 7 6 4 2 4 3 6 8 12 7 3 3 4
20 18 15 14 13 14 18 20 21 23 24 20 13 8 6 3 3 5 5 2 4 4 5 4 5 6 9 14 13 10 10 9 7 7 3 5 5 3 3 2 3 3 1 3 4 1 1
21 19 18 15 14 14 13 15 19 21 22 25 23 13 9 2 4 3 3 2 10 5 4 3 1 5 18 9 4 3 3 3 2 4 3 2 4 2 2 3 6 2 4 5 5 4 4
23 22 19 18 18 16 13 12 16 21 22 24 23 19 9 6 5 4 4 4 2 3 3 2 6 16 11 3 3 5 5 4 4 1 2 3 4 3 2 3 6 4 2 3 4 4 8
22 24 21 20 20 18 17 15 15 19 23 24 24 21 16 8 6 9 4 4 8 6 2 4 5 3 6 2 2 3 4 3 5 6 4 3 2 6 4 3 7 4 9 6 5 5 16
14 16 23 22 20 19 18 17 16 17 26 22 22 15 20 9 8 11 11 6 7 9 4 8 5 1 2 3 4 4 3 5 3 4 6 6 7 4 2 2 8 16 6 5 5 14 20
12 14 17 19 19 18 18 17 14 17 20 21 23 21 22 9 6 9 9 9 10 12 11 18 3 6 12 4 2 2 1 2 3 3 1 3 4 4 6 3 1 25 3 8 12 15 13
Wind_Direction
333 337 342 345 354 353 355 1 1 357 355 2 6 360 354 356 1 359 358 357 358 357 4 9 146 151 141 92 74 354 340 340 314 183 88 112 70 46 75 92 69 88 110 69 100 108 98
314 323 329 330 334 338 340 341 342 341 334 339 343 342 346 350 354 354 354 356 2 2 20 44 118 150 151 111 328 352 355 21 53 347 102 130 103 77 76 70 72 118 110 116 108 96 115
293 305 317 322 323 324 326 332 331 328 328 327 335 337 339 338 344 344 348 354 355 16 39 85 127 122 105 146 334 8 69 51 63 98 82 106 113 107 105 90 84 122 98 111 144 147 134
281 287 299 309 313 317 319 323 325 318 319 323 330 331 330 327 336 338 344 349 355 14 75 115 136 120 98 96 65 48 41 75 70 89 102 121 119 104 77 121 79 105 91 143 196 166 169
274 280 283 294 301 308 311 313 314 314 314 318 324 324 322 325 331 331 340 351 359 73 79 124 138 136 88 133 355 0 29 95 107 92 107 125 119 93 119 96 38 327 208 193 165 186 146
287 278 279 282 288 292 299 303 305 306 307 309 313 316 317 324 325 325 336 5 79 109 120 114 123 127 161 259 328 358 96 142 111 108 107 113 95 81 38 88 192 218 229 245 192 196 165
293 286 281 279 280 284 285 293 300 304 306 304 307 310 309 315 322 325 334 320 230 320 22 93 116 121 157 188 57 29 90 121 119 89 127 123 82 181 232 186 184 171 238 278 227 177 142
296 292 279 277 278 276 281 284 289 294 298 304 307 309 313 313 315 320 328 322 296 175 73 102 114 125 154 142 143 13 147 106 155 166 122 29 167 215 143 114 109 67 278 277 56 63 143
290 290 286 276 275 278 273 279 283 289 292 293 297 302 307 313 310 299 324 320 233 180 100 201 174 184 194 173 192 302 157 152 169 153 170 155 199 196 190 142 140 212 220 317 162 195 258
283 286 283 280 275 274 275 271 277 284 290 292 294 294 297 303 286 281 266 219 198 200 68 213 208 196 168 157 248 4 114 134 142 144 103 107 200 184 140 222 128 225 349 15 30 66 241
275 278 280 278 280 274 273 275 273 274 280 285 290 291 292 286 257 259 244 207 196 162 7 147 173 176 168 181 153 183 107 141 125 144 105 237 135 123 178 295 335 192 58 88 64 146 30
270 272 275 271 272 277 272 268 269 266 268 275 282 286 287 279 268 259 221 187 148 48 261 176 162 184 147 185 185 143 146 85 87 87 87 128 138 90 144 97 77 173 305 39 54 87 315
269 266 268 272 268 269 273 268 266 267 267 270 275 277 275 270 259 248 220 179 48 144 340 198 198 177 215 177 175 184 178 166 165 102 211 137 176 151 161 134 2 75 60 338 343 345 234
266 260 262 266 266 264 267 270 269 267 266 266 268 268 266 257 242 217 183 53 206 225 200 139 133 146 187 152 184 173 157 201 278 105 126 167 298 170 195 179 173 175 160 164 257 228 271
267 266 254 256 262 261 261 262 267 268 268 265 264 266 261 251 232 205 178 107 212 221 142 148 66 167 221 196 192 161 203 198 160 163 176 162 268 52 42 12 87 201 173 171 225 285 335
255 256 261 256 261 263 264 261 257 259 262 262 261 265 255 228 207 188 110 230 227 162 102 128 201 169 185 195 165 179 188 161 153 57 48 113 247 38 319 358 335 132 204 76 14 273 267
258 265 259 261 267 273 267 267 265 260 252 253 250 254 224 200 186 186 190 226 189 151 141 171 221 182 176 171 178 210 196 15 58 93 65 42 118 328 53 205 186 108 244 131 133 166 209
262 262 262 258 252 250 249 263 265 266 260 238 230 251 192 176 173 198 189 202 165 165 182 209 205 114 126 159 173 228 198 182 125 160 158 176 143 204 219 190 293 168 190 157 153 233 230
263 260 263 260 247 250 255 269 274 265 257 255 188 271 210 185 189 224 224 160 179 150 186 182 176 165 185 175 192 162 147 185 168 152 171 181 209 347 287 327 330 212 206 180 117 99 211
259 258 255 259 260 262 242 251 254 267 269 253 180 242 227 207 251 194 167 203 185 183 160 161 149 126 134 202 223 171 148 188 190 106 144 156 219 201 203 182 138 189 205 201 159 162 229
258 257 257 257 258 262 262 257 237 234 255 222 185 218 242 219 258 225 180 166 148 183 209 180 168 206 171 188 186 198 117 116 102 175 176 145 225 241 259 241 197 210 199 214 209 223 214
261 259 258 256 256 258 251 248 253 263 247 216 181 191 210 282 300 201 174 219 184 158 154 216 201 191 191 181 194 197 142 173 191 166 170 171 257 22 276 266 266 241 231 229 240 235 247
262 258 254 256 259 259 250 252 251 257 247 230 210 204 188 274 332 333 234 208 203 144 205 172 195 135 179 184 127 106 98 95 162 154 179 163 173 120 261 324 339 290 236 218 146 77 159
262 258 256 257 259 262 256 247 252 252 243 245 230 203 154 257 202 210 295 164 159 232 154 171 156 146 141 132 113 95 74 77 97 62 122 162 148 148 263 334 245 255 118 141 128 211 128
244 255 254 252 251 249 255 250 243 246 251 248 249 247 173 236 215 238 258 114 115 89 64 103 76 137 149 131 87 79 6 14 92 49 34 52 143 184 200 222 319 301 216 180 160 258 197
245 247 247 253 251 249 250 258 248 239 247 244 252 248 202 144 221 206 144 177 157 75 38 36 136 146 154 116 141 180 207 199 215 234 10 88 75 142 122 204 247 234 185 155 125 291 171
243 244 240 250 251 251 251 251 252 237 240 246 241 246 215 175 214 194 184 193 165 155 133 148 158 141 160 135 150 188 221 145 186 181 170 137 132 206 212 227 286 209 155 142 92 240 169
253 246 240 251 253 255 253 254 250 229 237 237 247 234 216 189 196 205 203 184 162 170 151 148 99 243 65 178 184 230 194 200 158 152 175 169 157 196 121 169 273 152 119 179 165 143 162
246 250 256 256 255 256 255 251 250 219 232 240 240 230 214 208 170 193 188 200 205 197 163 172 172 164 178 182 211 124 140 117 137 222 255 206 184 181 189 220 104 167 187 170 154 160 181
Height
1559 1559 1558 1557 1556 1555 1554 1552 1551 1550 1549 1547 1546 1546 1545 1544 1543 1542 1541 1539 1538 1537 1536 1536 1536 1536 1537 1537 1538 1538 1537 1537 1536 1536 1535 1536 1536 1537 1538 1539 1540 1544 1547 1547 1549 1548 1551
1558 1559 1558 1558 1557 1556 1554 1553 1551 1550 1550 1548 1547 1546 1545 1544 1543 1541 1540 1539 1537 1537 1536 1535 1535 1536 1537 1538 1537 1537 1537 1537 1536 1536 1536 1536 1537 1538 1540 1541 1542 1544 1547 1550 1552 1552 1554
1558 1557 1557 1558 1557 1556 1555 1553 1552 1550 1549 1548 1547 1546 1545 1544 1542 1541 1539 1538 1537 1536 1535 1535 1535 1535 1535 1538 1537 1537 1536 1536 1536 1536 1536 1537 1537 1538 1540 1543 1544 1546 1551 1552 1553 1554 1556
1557 1556 1556 1556 1556 1556 1555 1553 1552 1551 1549 1548 1547 1546 1545 1543 1542 1541 1539 1538 1537 1536 1535 1535 1535 1535 1535 1537 1536 1537 1536 1535 1536 1536 1536 1537 1538 1539 1541 1544 1546 1548 1552 1559 1551 1553 1556
1554 1555 1555 1555 1554 1554 1554 1554 1552 1550 1549 1547 1546 1545 1544 1543 1541 1540 1538 1537 1536 1536 1535 1535 1535 1535 1537 1537 1537 1536 1536 1536 1535 1536 1537 1537 1539 1540 1543 1547 1555 1551 1561 1556 1553 1551 1554
1552 1552 1553 1553 1553 1553 1553 1552 1552 1550 1549 1547 1546 1544 1543 1542 1540 1539 1538 1536 1536 1536 1536 1535 1535 1538 1538 1537 1536 1536 1535 1535 1535 1536 1537 1538 1539 1542 1545 1552 1564 1554 1554 1547 1553 1551 1551
1550 1550 1551 1551 1551 1551 1550 1551 1550 1549 1548 1547 1546 1544 1542 1540 1539 1538 1537 1536 1538 1537 1536 1536 1537 1536 1537 1537 1537 1536 1536 1536 1536 1537 1539 1538 1545 1549 1542 1542 1542 1543 1545 1547 1546 1543 1548
1548 1548 1548 1549 1550 1549 1549 1548 1549 1548 1547 1546 1545 1543 1542 1540 1538 1537 1536 1535 1534 1537 1536 1535 1535 1536 1536 1536 1537 1536 1536 1537 1536 1538 1537 1544 1545 1541 1540 1540 1541 1542 1544 1547 1545 1543 1547
1546 1546 1546 1546 1547 1548 1546 1546 1546 1546 1545 1544 1543 1542 1540 1539 1537 1537 1536 1536 1535 1535 1536 1536 1535 1535 1536 1537 1537 1536 1536 1536 1535 1536 1538 1543 1542 1539 1539 1539 1541 1541 1545 1545 1546 1546 1545
1543 1543 1544 1545 1544 1545 1545 1544 1544 1543 1544 1543 1542 1540 1539 1537 1538 1536 1535 1535 1535 1536 1542 1536 1535 1535 1536 1535 1537 1536 1535 1537 1536 1537 1536 1539 1540 1540 1540 1541 1541 1547 1546 1545 1546 1553 1562
1541 1541 1541 1542 1543 1541 1541 1542 1541 1540 1541 1541 1540 1539 1537 1536 1535 1536 1537 1535 1535 1537 1567 1535 1534 1534 1534 1536 1536 1535 1535 1535 1535 1536 1539 1542 1541 1542 1543 1544 1541 1544 1545 1546 1547 1553 1557
1536 1538 1539 1539 1539 1540 1539 1538 1538 1538 1537 1537 1537 1537 1536 1535 1535 1535 1535 1535 1536 1548 1558 1533 1532 1532 1533 1533 1534 1535 1535 1536 1536 1536 1537 1540 1540 1541 1542 1543 1543 1544 1544 1548 1551 1559 1574
1531 1532 1534 1536 1536 1536 1537 1536 1535 1534 1534 1534 1534 1534 1535 1534 1534 1534 1535 1536 1547 1559 1529 1531 1531 1530 1530 1533 1534 1534 1534 1536 1538 1547 1543 1540 1541 1541 1541 1544 1544 1545 1552 1565 1568 1574 1559
1526 1526 1529 1531 1532 1532 1533 1533 1533 1531 1531 1531 1530 1531 1531 1532 1532 1533 1534 1538 1542 1526 1528 1524 1525 1528 1532 1530 1532 1533 1535 1539 1535 1535 1545 1551 1551 1542 1541 1542 1545 1547 1550 1564 1551 1560 1552
1522 1523 1522 1524 1526 1527 1528 1529 1530 1529 1529 1528 1527 1527 1528 1530 1530 1531 1533 1547 1536 1523 1519 1525 1528 1530 1531 1529 1530 1533 1535 1535 1534 1534 1541 1547 1539 1543 1543 1543 1544 1545 1552 1548 1554 1556 1560
1516 1518 1518 1519 1520 1521 1522 1523 1525 1526 1526 1526 1525 1525 1524 1526 1528 1530 1532 1532 1521 1519 1519 1522 1526 1523 1530 1531 1533 1534 1531 1533 1535 1536 1537 1537 1543 1544 1545 1545 1545 1545 1547 1557 1565 1560 1552
1514 1514 1513 1513 1513 1516 1516 1517 1518 1519 1521 1522 1524 1523 1519 1521 1525 1528 1533 1527 1519 1519 1519 1521 1520 1520 1520 1525 1529 1529 1528 1537 1535 1537 1538 1538 1541 1550 1546 1548 1547 1552 1551 1550 1556 1561 1561
1508 1509 1510 1508 1508 1510 1511 1511 1513 1514 1516 1518 1521 1522 1516 1518 1523 1519 1522 1514 1515 1517 1519 1520 1520 1519 1519 1521 1523 1525 1526 1532 1533 1535 1537 1539 1545 1549 1545 1545 1544 1543 1543 1546 1559 1548 1554
1502 1503 1505 1504 1503 1503 1505 1506 1509 1509 1511 1513 1516 1517 1515 1515 1517 1517 1512 1512 1513 1515 1516 1518 1519 1518 1519 1520 1524 1524 1531 1534 1533 1534 1536 1538 1546 1555 1539 1546 1544 1542 1540 1540 1548 1555 1551
1497 1498 1499 1500 1500 1500 1499 1501 1503 1505 1507 1510 1514 1515 1514 1511 1508 1505 1508 1509 1512 1512 1512 1514 1516 1517 1519 1520 1520 1524 1531 1534 1534 1535 1536 1537 1542 1536 1538 1525 1534 1539 1538 1538 1542 1562 1536
1491 1492 1493 1494 1496 1498 1498 1499 1498 1501 1503 1508 1509 1509 1508 1509 1505 1500 1499 1502 1507 1510 1511 1512 1515 1514 1516 1521 1521 1524 1529 1534 1535 1535 1537 1539 1543 1538 1533 1533 1532 1532 1532 1536 1537 1530 1538
1486 1486 1486 1488 1491 1494 1495 1497 1492 1496 1498 1503 1503 1506 1504 1503 1498 1497 1499 1500 1500 1502 1505 1509 1510 1507 1511 1515 1515 1520 1522 1528 1528 1535 1538 1539 1540 1538 1536 1532 1532 1533 1532 1530 1526 1528 1532
1483 1483 1482 1484 1485 1487 1489 1492 1490 1492 1495 1496 1497 1498 1502 1501 1498 1498 1496 1493 1493 1495 1501 1500 1501 1504 1508 1511 1513 1517 1519 1520 1521 1527 1534 1539 1541 1545 1541 1536 1537 1532 1525 1522 1525 1532 1533
1478 1479 1479 1480 1480 1482 1484 1486 1484 1487 1491 1491 1493 1494 1499 1499 1502 1499 1496 1494 1493 1497 1499 1500 1501 1501 1509 1510 1513 1518 1520 1522 1524 1527 1528 1535 1538 1543 1551 1542 1551 1528 1532 1534 1536 1540 1539
1473 1475 1474 1476 1478 1480 1480 1479 1479 1482 1486 1489 1488 1491 1493 1496 1497 1497 1497 1496 1496 1498 1500 1501 1503 1503 1506 1510 1517 1523 1528 1526 1528 1530 1529 1530 1534 1541 1547 1551 1529 1538 1533 1534 1535 1538 1538
1466 1468 1470 1472 1474 1475 1474 1473 1474 1477 1481 1485 1486 1487 1489 1491 1492 1492 1494 1497 1499 1499 1504 1505 1506 1504 1506 1510 1512 1516 1518 1518 1530 1531 1531 1531 1533 1538 1549 1548 1537 1532 1530 1531 1531 1543 1534
1462 1464 1466 1467 1467 1466 1467 1468 1469 1472 1473 1478 1481 1484 1485 1485 1487 1491 1492 1492 1493 1497 1501 1505 1506 1507 1507 1509 1510 1511 1509 1511 1521 1525 1534 1535 1536 1536 1537 1548 1534 1528 1529 1531 1546 1538 1532
1457 1457 1461 1460 1459 1459 1460 1462 1464 1467 1468 1474 1476 1476 1483 1480 1482 1485 1486 1490 1491 1493 1495 1502 1506 1509 1511 1511 1508 1509 1506 1507 1510 1518 1522 1521 1528 1537 1543 1546 1535 1524 1531 1535 1528 1527 1529
1454 1454 1452 1452 1452 1453 1455 1457 1459 1463 1467 1469 1472 1473 1478 1479 1481 1482 1483 1486 1489 1492 1492 1495 1497 1498 1503 1506 1505 1506 1506 1508 1511 1513 1513 1516 1513 1519 1522 1520 1518 1520 1522 1524 1526 1526 1530